RH
70 76 81 65 91 89 98 99 97 88 84 82 74 67 66 61 57 58 34 25 14 22 26 14 13 19 24 28 37 38 50 52 36 30 25 27 28 31 34 35 35 33 32 33 36
29 29 30 42 76 85 99 99 99 94 89 92 84 72 69 64 59 42 24 18 20 27 20 16 17 21 23 29 35 43 45 34 32 22 22 26 28 29 31 35 39 36 34 32 35
28 28 28 32 37 68 83 90 99 98 92 96 91 79 70 64 58 22 21 26 30 28 16 18 22 24 24 29 36 42 38 29 27 22 24 24 27 29 35 36 33 34 31 33 36
33 31 30 28 30 39 51 86 95 97 96 100 95 83 75 63 67 44 40 32 30 22 20 21 24 25 29 34 33 38 37 31 27 26 30 29 27 35 36 28 23 24 29 33 37
41 39 34 32 32 28 32 49 62 72 82 99 100 89 82 74 66 56 36 32 28 24 22 23 26 26 27 27 27 38 33 29 27 29 31 30 36 34 34 27 28 32 32 35 37
36 37 36 33 31 30 30 28 69 92 95 99 99 89 78 82 54 46 36 31 25 31 26 26 29 31 34 36 33 37 39 38 36 33 32 38 39 38 35 33 34 37 36 38 39
37 34 32 31 30 29 30 32 28 73 91 99 88 77 85 67 60 49 36 30 30 35 37 32 36 38 40 45 46 47 55 58 57 51 54 43 56 53 42 39 41 42 42 41 40
32 34 31 30 29 35 30 29 30 25 45 70 79 90 81 61 53 37 32 31 32 36 37 42 46 48 45 47 62 62 60 82 59 41 46 44 69 47 39 43 45 45 44 43 43
25 37 39 35 28 37 50 52 37 31 41 81 99 92 70 42 41 45 37 30 33 39 37 45 51 51 52 74 78 76 86 85 78 43 49 41 54 42 46 48 50 49 49 51 52
26 38 41 42 35 56 79 77 84 90 81 99 96 71 58 50 54 35 29 31 34 48 48 50 48 66 64 77 79 59 90 80 86 46 55 58 64 51 47 54 52 51 54 59 57
18 37 40 44 53 85 75 85 90 83 77 68 60 60 70 60 64 45 36 34 30 46 70 59 71 77 60 66 59 63 73 76 56 46 45 51 53 46 46 57 70 63 68 64 55
26 41 42 44 52 87 82 84 83 85 84 70 79 78 76 76 43 36 35 30 39 52 58 58 68 56 52 51 59 65 70 73 46 32 39 46 46 48 51 62 66 63 62 40 28
36 50 48 45 57 77 82 85 85 72 95 79 70 58 31 32 28 27 30 26 34 35 46 46 36 41 50 43 55 55 62 46 36 38 40 52 72 80 68 52 54 50 39 30 22
68 63 52 45 72 93 87 85 72 80 91 65 57 32 21 20 24 25 35 35 29 34 32 39 29 29 33 30 35 38 34 37 42 47 78 49 89 59 71 74 44 45 41 26 20
66 75 65 55 67 88 85 78 78 89 68 41 32 28 23 35 55 60 51 32 45 44 41 60 27 27 29 29 28 34 36 39 41 55 77 75 85 72 72 73 57 45 31 21 27
55 81 81 64 74 88 85 76 78 85 77 54 45 40 63 62 70 63 41 38 37 42 44 50 34 27 29 32 30 39 49 64 76 85 97 82 84 74 87 78 37 44 27 28 52
34 89 90 76 78 91 91 86 82 97 55 85 83 65 61 64 62 66 78 75 72 75 87 69 42 33 31 34 39 51 64 84 85 95 90 87 90 78 63 49 69 59 42 38 62
29 98 91 81 77 91 94 75 94 55 76 68 61 62 64 56 66 65 57 76 68 70 95 97 83 39 36 44 61 41 63 87 76 72 60 73 88 57 49 49 42 41 41 52 70
63 99 94 78 71 96 100 89 86 69 72 67 61 73 83 61 70 78 74 75 70 80 93 98 88 39 36 34 29 47 68 56 63 83 85 56 49 43 41 40 35 48 37 59 80
98 97 80 81 79 86 99 79 79 78 80 62 76 85 81 72 67 84 89 72 76 92 98 94 96 51 43 37 38 42 45 82 87 67 64 42 44 55 42 38 50 73 58 69 86
86 88 86 99 95 97 99 79 86 85 75 76 80 92 67 91 91 94 86 82 98 98 91 97 94 75 51 54 53 49 69 56 63 85 68 60 42 72 54 63 71 82 58 80 93
98 99 88 100 98 99 97 75 76 86 73 91 79 83 92 94 94 97 92 100 99 86 96 76 95 100 78 56 50 45 44 54 94 74 88 79 53 81 66 78 85 69 71 88 94
100 82 98 100 98 97 77 75 72 69 67 85 97 92 99 95 95 88 97 99 98 99 96 82 93 98 79 73 54 51 45 88 92 84 84 65 47 68 74 81 58 71 84 91 95
99 100 99 97 89 83 93 94 88 90 96 90 98 95 97 97 98 96 95 92 99 98 100 98 96 94 96 96 92 75 72 76 94 90 82 68 50 37 48 70 73 75 90 93 97
99 97 76 96 99 92 88 86 96 97 99 88 99 96 94 99 96 99 90 89 94 89 98 96 99 96 85 90 96 93 92 86 95 72 56 66 70 68 70 72 78 80 92 92 96
96 100 84 80 84 88 87 87 65 99 98 98 94 98 96 92 86 99 99 96 99 95 99 97 94 97 89 78 95 95 93 96 90 75 60 71 63 54 70 62 69 83 95 95 96
94 88 100 89 97 91 94 84 72 86 98 84 85 94 98 95 99 99 96 98 98 98 97 97 97 96 93 95 96 96 89 91 89 88 77 78 63 60 53 49 72 85 97 98 97
Wind_Speed
24 23 22 22 19 17 20 19 18 19 18 18 18 20 22 22 22 22 2 2 1 7 10 6 3 2 4 3 3 4 2 3 4 4 3 1 1 1 0 2 4 6 5 3 17
22 23 23 22 19 17 18 20 21 20 19 19 19 19 21 22 22 9 3 1 5 8 7 5 1 2 3 3 4 3 3 7 4 2 2 2 1 2 1 3 5 7 9 8 17
21 22 22 21 21 20 19 17 20 20 21 19 19 19 19 21 16 1 2 5 6 6 5 4 3 2 3 4 6 5 5 4 4 6 5 2 3 5 4 6 10 10 14 13 21
22 22 22 22 21 21 22 22 21 19 19 20 20 19 19 17 3 2 5 5 6 4 5 4 1 1 2 3 4 2 8 6 4 3 2 3 3 3 12 12 7 8 11 17 22
23 24 23 23 23 22 22 21 22 22 16 16 16 18 22 10 9 6 5 5 4 5 6 4 3 2 2 2 3 4 3 5 8 9 8 9 9 8 15 16 17 15 14 19 21
25 25 24 24 25 24 21 21 18 16 17 15 15 20 16 5 5 5 4 5 2 5 6 3 1 2 3 3 3 2 6 10 11 15 8 5 6 6 7 12 18 15 17 20 20
27 28 27 25 24 23 22 21 18 18 17 16 20 18 15 17 7 5 3 3 4 6 5 3 2 2 1 3 3 4 6 6 5 2 4 1 6 8 17 8 11 14 17 17 16
27 27 28 27 25 23 20 19 17 16 16 17 15 9 8 7 7 4 3 4 5 8 4 4 4 3 3 4 4 3 2 4 2 1 1 2 7 4 4 9 12 15 16 16 16
26 27 27 28 26 21 18 16 15 12 12 11 7 7 6 3 2 4 5 5 8 7 5 3 2 2 2 3 3 3 3 3 7 1 1 3 7 4 2 7 11 14 16 16 15
25 25 26 27 26 19 17 13 10 8 4 5 7 3 5 2 5 4 5 6 3 1 3 2 2 3 3 3 3 3 4 4 5 2 1 5 14 14 11 9 15 14 15 15 15
25 23 24 25 21 16 15 8 5 2 4 5 2 3 9 5 6 4 2 2 3 1 2 1 2 6 8 6 1 2 3 6 5 5 4 9 9 17 7 11 12 17 13 11 11
24 23 23 22 18 13 12 7 5 3 8 8 10 12 10 8 3 2 3 1 2 3 1 3 6 7 3 3 4 3 3 7 6 2 2 8 14 13 4 2 7 14 11 4 6
22 22 22 20 16 11 10 7 5 8 4 5 5 4 3 3 2 2 3 2 4 3 5 6 3 2 4 4 3 3 4 4 5 6 4 6 7 4 2 2 7 9 6 6 14
22 21 20 18 11 8 7 7 7 5 4 5 4 4 3 2 2 2 2 2 2 3 2 5 3 2 2 3 5 3 2 1 3 5 3 4 5 4 3 2 3 5 4 15 19
20 20 18 15 13 8 7 5 4 3 4 3 3 3 3 2 0 1 4 2 3 2 3 5 1 2 3 4 5 4 2 1 1 2 4 2 3 6 1 4 4 1 11 17 21
19 20 18 15 12 9 7 4 2 4 6 3 3 3 2 1 1 2 2 2 1 1 1 6 3 2 3 2 1 2 2 4 3 2 2 4 4 4 3 4 2 3 14 18 23
20 19 19 14 10 7 6 3 2 4 2 4 3 4 2 2 1 3 2 3 2 5 4 5 2 0 1 2 1 2 4 4 5 2 5 2 2 7 3 2 4 3 14 20 23
20 20 17 16 14 10 7 2 6 5 4 1 3 1 2 2 1 2 2 1 3 2 2 2 5 2 0 1 2 1 4 4 4 2 4 2 5 4 2 7 4 6 15 20 25
21 18 18 15 12 10 8 5 7 6 1 4 3 2 1 2 3 3 1 1 3 2 3 1 4 1 2 1 2 2 1 3 2 2 2 3 5 2 2 1 2 11 19 24 28
20 17 20 16 12 11 3 6 4 3 1 1 4 2 2 1 1 2 2 1 3 2 1 2 4 0 1 1 3 2 3 3 2 2 4 4 4 3 1 2 7 8 18 26 28
16 8 8 11 13 6 3 4 4 4 3 3 3 3 3 2 1 2 2 3 3 3 1 2 2 4 1 4 4 2 1 1 1 3 3 3 4 3 5 5 6 8 17 22 26
16 3 9 12 3 4 3 2 2 3 3 2 1 2 2 2 1 1 2 2 2 2 3 3 3 4 7 1 1 1 2 5 3 3 1 1 5 2 4 4 2 12 17 21 22
5 10 9 13 3 3 3 3 3 3 3 3 2 2 1 3 1 1 2 3 4 2 3 3 1 4 5 4 3 3 3 4 4 2 5 3 5 2 2 4 2 10 17 20 22
3 2 4 9 3 5 4 4 3 2 2 3 2 3 2 2 2 1 1 3 6 3 4 6 2 4 3 2 2 2 2 4 4 2 2 6 7 1 5 4 7 13 16 20 21
6 3 5 3 4 3 5 6 6 3 1 2 1 2 3 3 0 3 1 1 4 1 1 3 3 3 8 11 11 11 7 9 9 7 6 4 5 5 4 2 6 11 16 20 23
6 4 6 4 10 6 6 3 7 3 4 3 2 5 3 3 3 3 1 2 2 3 2 1 3 2 5 7 6 9 11 13 14 13 8 4 19 5 3 1 6 11 15 19 23
12 25 8 4 2 4 4 5 7 7 1 3 5 4 2 1 2 1 3 4 3 1 3 3 2 2 4 3 7 5 6 11 4 4 6 6 4 3 2 2 4 11 13 17 20
Wind_Direction
317 313 307 308 306 306 309 309 310 313 312 317 319 323 327 326 325 326 306 111 324 331 331 333 295 268 215 199 177 148 72 234 247 183 258 1 300 326 18 137 205 214 229 229 184
319 317 315 309 299 300 302 305 305 306 310 309 312 317 324 327 329 334 131 3 321 328 334 355 34 224 206 188 183 120 155 220 219 222 244 281 205 246 221 200 224 238 243 227 191
329 327 322 316 306 293 297 290 295 302 312 303 305 315 324 329 331 101 359 324 317 329 338 327 306 250 213 190 193 175 211 211 257 237 239 231 252 211 184 260 223 225 232 203 192
334 331 328 323 314 304 291 289 288 295 308 303 304 310 324 329 318 303 306 316 317 336 332 313 303 217 228 225 190 226 242 236 279 284 244 226 231 220 213 242 249 258 252 212 201
339 336 333 328 321 313 304 296 285 281 288 298 294 313 320 311 283 276 291 314 315 340 331 298 268 213 231 261 291 220 279 282 269 285 266 258 243 237 248 258 255 254 225 213 207
335 334 333 332 324 319 309 300 291 288 274 289 287 305 316 284 265 259 279 310 314 346 330 299 249 236 261 244 210 300 281 277 281 268 259 232 257 205 264 260 245 234 214 206 209
332 331 331 331 326 320 312 301 292 280 284 272 284 298 298 275 262 250 271 309 302 320 311 271 271 283 305 294 316 305 314 323 241 258 243 243 283 230 256 254 223 206 196 201 209
333 332 330 330 327 323 319 308 294 282 277 279 282 293 261 265 263 233 265 286 294 306 281 277 290 268 214 305 342 332 47 341 283 356 319 142 274 275 288 230 224 213 204 206 213
334 333 332 331 328 324 321 310 293 283 273 273 270 258 260 198 247 287 253 253 291 283 252 255 291 154 107 86 358 4 258 240 310 80 119 178 272 255 245 212 228 219 210 211 216
331 331 330 332 332 329 330 320 307 279 256 235 232 240 242 204 298 271 263 273 291 308 190 227 89 80 49 98 229 223 254 259 247 294 267 258 262 270 244 224 234 222 212 210 217
328 328 328 330 331 334 342 333 311 282 228 212 250 261 288 279 288 278 253 268 289 230 232 17 89 216 214 202 163 264 226 255 256 262 274 247 271 274 261 235 241 231 213 212 233
324 325 324 327 324 324 337 337 9 328 307 263 248 260 259 262 239 206 205 126 135 244 139 357 245 231 187 177 198 216 271 271 281 266 220 283 279 278 262 267 265 231 177 199 300
317 320 320 324 314 304 325 330 359 330 285 284 218 217 207 209 213 162 172 156 190 221 206 201 263 76 167 176 181 209 211 243 256 330 259 299 290 337 358 80 91 116 113 16 346
310 312 315 321 308 302 301 325 321 340 43 262 218 201 187 177 79 172 182 219 221 235 253 227 273 266 165 219 151 268 180 273 308 2 261 22 286 310 258 304 209 170 13 350 343
296 302 308 312 297 295 288 303 307 355 360 172 192 162 170 147 199 44 196 176 221 238 90 260 245 225 239 232 170 222 78 333 262 228 7 329 76 272 2 282 242 114 345 341 336
285 291 295 299 291 271 260 282 257 42 255 221 160 175 117 93 134 134 186 203 236 306 257 252 295 256 199 65 27 102 86 48 55 81 5 244 133 274 220 209 76 8 344 337 334
277 279 286 289 281 264 250 210 270 205 335 196 191 162 166 169 133 162 84 21 110 36 354 321 237 75 154 133 25 81 61 326 349 6 225 261 176 254 252 182 163 264 329 337 333
270 269 277 283 273 263 226 155 217 243 221 33 66 95 52 50 95 341 130 75 60 103 87 48 317 176 312 195 163 128 137 163 248 276 283 208 239 261 130 102 146 344 337 331 340
273 263 270 276 256 253 216 199 216 219 218 134 65 103 218 195 134 58 53 125 74 59 155 127 270 119 39 81 102 182 131 188 76 210 23 237 276 314 136 81 330 339 343 339 342
275 263 265 253 228 218 210 225 238 259 305 109 154 150 172 316 35 83 4 319 107 72 123 221 304 341 90 90 38 158 157 64 21 324 293 278 275 245 276 330 329 334 333 336 341
255 256 239 209 198 176 222 226 267 267 186 76 174 166 217 95 36 300 158 124 158 161 80 126 121 287 17 202 180 123 326 103 112 161 199 300 269 216 176 213 277 308 325 333 340
236 230 200 192 171 154 175 202 219 255 74 105 146 88 108 131 156 299 334 75 119 116 151 187 150 262 228 35 340 274 221 159 155 247 160 198 274 19 171 210 222 309 331 341 347
236 231 199 195 184 199 115 213 248 239 199 181 124 86 107 145 147 246 29 136 131 170 160 176 255 331 337 10 25 240 195 124 94 101 214 166 262 153 94 9 18 325 340 345 352
224 223 184 200 248 148 138 212 200 57 62 86 105 95 121 160 183 196 237 161 181 212 203 178 178 210 238 209 147 287 210 157 150 168 181 233 284 60 350 356 338 343 348 350 1
282 241 189 195 220 176 165 171 150 150 99 133 118 199 160 143 122 217 103 1 171 50 28 125 230 210 259 262 252 246 210 179 201 213 200 253 233 281 298 255 310 337 348 358 5
216 252 181 194 162 145 184 233 180 146 157 193 149 161 135 150 165 223 100 193 246 6 186 316 269 279 276 242 243 258 239 221 215 238 257 277 287 193 116 26 337 358 356 356 4
233 258 340 184 110 115 198 180 164 130 305 164 150 125 167 119 77 233 233 238 241 201 208 193 243 319 268 341 304 278 225 207 202 202 189 211 239 191 125 95 339 355 1 356 2